Wind_Speed
99 100 102 102 102 104 104 104 103 102 103 104 102 98 96 95 93 90 87 86 87 88 89 88 81 79 84 87 87 88 86 84 82 78 75 75 78 81 82 80 77 74 72 70 66 63 61 59 57 55 53 53 55 56 54 52 50 48 48 48 48 48 47 44 43 42 42 42 42 43 44 44 43 43 42 42 41 41 42 44 46 48 50 51 49 45
95 96 96 98 101 105 108 108 106 105 106 106 105 102 98 96 94 92 90 88 91 92 91 87 80 77 82 86 86 88 88 85 85 83 79 77 78 81 83 79 75 72 69 66 61 60 59 58 56 55 54 55 56 57 55 52 50 48 48 49 48 48 47 45 43 42 42 42 42 43 44 45 45 44 44 43 44 44 46 47 48 49 51 52 49 45
91 92 93 96 101 105 108 109 107 106 107 107 106 104 101 97 95 94 93 91 94 95 92 87 81 76 79 83 86 88 89 87 86 86 84 81 79 80 82 78 73 71 67 63 61 60 59 58 58 57 57 57 58 58 56 53 50 49 49 49 48 47 46 45 43 42 41 41 42 44 45 46 47 47 46 46 47 49 50 52 52 52 52 51 47 44
85 87 91 96 101 104 106 106 107 107 108 108 107 105 102 99 97 96 95 95 98 98 94 89 83 78 78 82 85 88 89 89 89 89 88 86 83 81 80 77 72 69 65 63 62 60 60 60 60 59 58 59 59 59 56 53 51 50 50 49 47 46 46 45 44 42 42 42 43 46 48 49 50 50 50 50 51 52 54 54 53 53 50 46 44 43
80 82 88 94 98 101 103 104 105 106 107 108 107 105 103 101 100 98 98 99 101 101 96 91 86 81 81 84 85 87 88 89 91 92 90 88 85 82 80 78 73 67 62 60 59 59 60 61 61 60 59 59 60 60 57 53 52 51 50 49 47 46 46 46 46 44 43 43 44 46 48 50 51 52 51 50 50 49 48 48 48 47 45 42 42 43
75 81 87 91 94 97 100 102 104 104 106 108 108 106 104 103 103 101 101 103 105 104 97 93 89 84 83 85 84 83 85 86 88 90 91 88 85 84 82 80 75 67 61 58 57 58 58 58 58 58 58 59 61 62 59 54 51 51 50 49 47 46 46 47 46 45 45 44 44 45 47 48 49 49 48 47 45 42 39 39 40 41 41 42 42 43
72 81 86 89 91 93 97 100 102 104 105 106 107 107 106 106 106 104 105 107 108 105 98 96 93 86 86 88 84 82 84 83 84 87 90 89 86 85 84 81 75 67 61 59 58 56 55 54 53 54 56 59 63 64 59 53 51 51 50 48 47 47 47 47 46 45 45 44 45 45 46 47 47 47 45 45 44 41 38 37 39 41 42 43 44 44
71 80 84 86 88 90 92 95 99 103 105 104 104 107 108 108 108 107 108 110 109 105 100 100 97 91 91 91 87 85 85 83 83 85 87 87 86 84 81 77 73 68 65 63 61 58 55 53 51 52 55 58 61 62 58 53 52 52 50 48 48 47 47 47 46 45 45 45 45 46 46 47 47 46 46 46 47 44 41 41 43 44 45 45 45 45
69 75 78 81 84 86 87 89 94 101 103 102 103 107 109 109 110 111 112 113 112 108 105 104 101 96 94 92 88 87 86 84 82 81 81 81 80 78 75 73 70 68 67 66 65 62 59 56 53 54 55 56 59 59 57 55 54 53 51 51 50 49 48 47 46 46 45 46 46 46 47 47 48 48 47 48 49 47 45 45 45 45 45 46 46 45
63 68 73 75 77 80 83 86 91 98 100 100 103 107 108 109 111 113 114 115 115 114 110 106 103 100 95 91 89 90 88 83 78 75 72 70 70 70 70 70 69 68 68 67 66 64 62 60 57 57 57 58 59 58 57 56 55 53 53 54 54 52 50 49 47 47 46 46 47 48 47 47 48 48 48 48 48 47 46 46 46 46 46 46 45 45
56 61 66 68 71 75 79 84 89 94 96 97 102 106 107 109 111 114 116 116 118 118 111 105 103 101 96 92 91 91 87 80 74 69 65 64 65 66 66 67 67 66 66 66 65 64 63 62 60 60 61 61 60 58 57 57 56 56 55 56 56 53 52 51 50 48 48 48 48 49 48 48 49 49 48 47 47 46 47 47 47 48 47 46 45 46
49 54 58 62 67 72 77 82 86 89 91 93 99 104 107 109 111 114 117 118 120 118 110 104 103 102 97 92 91 89 83 77 73 69 66 65 64 63 62 62 61 62 63 63 64 64 63 62 61 62 63 62 61 60 59 59 59 58 56 56 56 54 53 52 51 50 49 49 49 50 49 48 49 49 48 47 47 47 47 47 48 48 47 46 46 47
45 47 51 57 63 68 73 78 82 86 88 89 95 102 107 109 111 115 117 118 118 112 105 103 104 104 97 90 89 87 81 77 75 72 69 66 63 60 59 58 56 56 58 59 60 62 62 62 61 63 64 64 63 62 62 61 60 60 58 56 56 55 54 53 52 52 51 51 51 51 50 50 50 49 49 48 48 48 48 48 48 48 47 47 48 50
41 44 47 53 60 65 70 74 78 82 84 86 92 100 106 108 111 113 114 116 114 106 102 103 106 106 97 89 89 86 80 78 76 73 70 67 65 62 59 56 53 52 53 54 56 58 60 61 62 64 65 65 64 63 63 62 61 61 60 58 57 57 56 54 53 52 51 52 52 52 52 51 51 51 50 49 48 48 48 48 48 48 49 50 51 52
38 41 44 49 56 62 66 71 76 80 83 86 90 97 103 107 109 111 111 112 110 104 101 105 111 108 97 89 87 84 80 78 76 72 71 70 68 65 61 57 51 49 51 52 53 55 57 59 61 64 65 65 64 64 63 62 61 61 60 60 59 58 57 56 54 53 52 53 54 54 53 53 53 52 51 49 48 47 47 48 49 49 50 51 51 52
35 39 41 43 49 55 60 66 72 76 81 85 90 96 100 103 107 108 110 111 109 106 105 109 113 107 95 88 85 83 81 79 77 74 74 73 70 67 63 56 50 48 49 49 50 52 54 56 58 60 62 63 64 63 62 61 60 60 60 60 59 58 57 57 55 53 53 54 55 55 54 54 53 52 51 49 47 46 47 49 50 50 51 51 52 52
31 34 35 37 43 49 54 62 68 70 75 81 86 91 94 98 104 107 109 110 110 110 110 111 112 105 95 88 85 84 83 82 80 78 76 74 71 68 62 55 50 48 47 47 48 50 52 53 54 55 57 60 61 60 60 60 59 59 59 58 57 56 56 57 56 54 55 56 56 56 56 55 54 52 51 49 48 48 48 49 50 51 51 52 53 55
27 29 31 35 42 47 51 58 63 65 70 76 81 85 89 95 101 104 106 108 110 111 111 110 109 103 95 90 88 88 87 85 82 81 79 75 71 67 61 56 53 50 47 47 47 49 50 51 51 51 53 54 54 55 56 56 56 56 56 55 54 53 55 58 57 56 57 57 58 58 57 55 54 52 51 50 49 49 50 51 51 52 53 54 55 56
24 25 28 34 40 43 46 52 56 60 65 69 74 80 85 91 95 99 102 104 106 108 106 106 104 99 93 90 90 90 88 85 82 81 80 76 71 66 61 58 55 51 49 47 47 48 49 49 48 49 49 49 49 49 50 51 51 51 52 51 51 52 55 57 57 57 57 58 58 57 55 54 52 51 49 48 48 49 49 50 51 52 53 54 55 55
20 23 26 32 36 38 41 46 50 55 60 63 67 72 78 84 89 93 97 99 103 104 103 102 99 95 92 90 89 90 88 86 84 82 81 77 72 67 63 61 58 53 50 48 47 48 47 47 47 47 47 47 46 46 45 46 46 46 46 46 47 51 54 55 56 57 57 56 56 55 53 52 50 49 48 47 47 48 49 50 51 52 53 54 54 54
17 20 24 28 32 35 38 41 45 50 54 57 61 65 72 78 84 88 91 95 99 102 101 99 96 92 91 89 89 89 88 87 85 83 82 79 75 70 66 64 60 56 53 51 49 49 48 47 46 45 45 44 44 43 42 43 43 43 43 43 45 47 50 52 54 54 54 54 53 53 52 50 49 49 48 48 49 50 50 51 52 52 52 53 53 53
14 18 22 25 29 32 35 38 41 45 49 53 57 61 67 74 79 84 88 91 96 98 97 96 94 91 90 89 90 91 90 89 87 85 83 80 78 74 70 67 63 59 57 54 52 51 50 48 45 43 43 43 42 41 41 41 41 41 40 40 42 44 46 48 49 49 49 50 50 50 50 50 50 50 50 50 51 52 52 52 52 52 52 52 52 51
12 16 20 23 25 28 31 34 37 41 46 50 54 58 63 69 74 79 83 87 91 92 92 93 93 91 89 89 92 93 93 93 91 88 85 82 79 76 73 69 65 62 59 56 55 54 53 49 46 44 43 42 40 39 39 39 39 37 37 38 40 42 44 44 44 45 45 45 46 47 49 50 50 51 50 51 51 52 52 52 52 52 51 50 50 49
10 14 17 20 22 24 27 29 33 38 43 47 51 55 59 63 68 74 78 82 85 86 88 90 92 91 90 91 94 96 96 94 92 89 86 82 79 77 74 70 66 63 61 58 57 57 54 49 46 45 43 40 37 36 36 36 35 35 36 38 39 40 41 42 42 42 42 42 43 44 46 47 48 49 49 49 50 50 51 51 50 49 49 47 46 46
8 11 14 17 20 22 23 25 28 33 38 42 46 50 54 59 64 70 74 78 81 83 84 87 89 90 90 92 95 97 96 93 90 88 86 83 79 77 74 70 67 65 62 60 60 58 53 49 47 46 43 39 36 35 35 35 34 34 36 36 37 38 38 39 40 40 41 41 42 43 44 45 46 46 47 47 48 48 48 48 47 45 44 43 42 42
6 8 11 14 17 19 22 24 27 30 33 37 41 45 49 54 60 65 69 74 78 79 80 82 85 89 91 93 95 96 95 92 90 88 86 83 79 76 73 69 66 65 63 62 61 58 53 50 49 47 44 40 37 35 35 34 34 34 35 34 34 35 35 36 37 38 39 40 41 42 42 43 44 44 44 44 44 44 44 43 42 40 39 39 39 40
4 6 8 12 15 18 21 24 26 29 32 34 36 39 44 49 54 58 62 67 71 73 74 77 82 87 90 92 95 95 94 93 92 89 86 82 79 76 72 68 65 65 65 64 62 58 54 53 52 49 45 41 38 36 35 34 33 32 32 32 32 33 33 34 35 36 37 38 39 39 39 40 41 41 40 40 40 40 40 39 38 37 38 39 40 40
4 6 7 9 14 18 21 23 25 27 30 33 35 37 40 43 47 50 54 59 64 66 69 74 79 83 87 90 93 95 94 94 92 90 85 81 78 75 71 68 66 67 67 65 61 58 56 55 53 50 46 42 39 37 36 34 32 31 31 31 31 31 32 33 34 34 35 35 35 35 35 35 36 37 37 37 36 36 36 37 38 39 40 40 40 41
4 7 7 8 13 18 21 23 24 25 28 33 36 38 39 40 42 45 50 55 59 62 66 71 75 78 82 88 92 94 94 93 91 88 84 81 78 75 72 69 68 68 67 65 61 59 57 56 55 51 47 43 40 38 36 35 33 31 31 30 29 30 31 32 33 34 34 33 33 33 33 33 34 34 34 34 35 36 37 38 39 39 39 38 38 39
3 7 9 9 12 18 21 23 24 25 27 31 34 36 38 38 41 45 49 53 56 59 63 67 71 74 79 84 88 90 91 91 88 85 83 80 77 75 72 70 69 68 68 66 63 61 59 58 56 53 48 44 41 38 37 36 35 33 31 30 30 31 32 32 33 34 34 33 33 32 32 33 33 33 34 36 38 39 40 40 38 37 36 36 37 38
1 6 9 10 11 15 19 22 24 25 27 29 30 32 35 38 41 44 47 50 53 57 61 65 68 71 75 80 84 88 89 89 86 84 82 80 77 74 72 71 69 68 68 68 66 64 62 60 58 53 48 45 42 40 39 39 37 34 31 31 32 33 33 33 33 33 33 33 32 31 31 32 34 36 37 39 41 41 40 38 36 36 37 38 39 40
1 4 9 11 11 13 17 20 22 24 26 27 28 29 32 36 39 42 44 47 50 54 58 62 65 68 72 76 81 85 87 87 86 84 82 81 77 75 73 72 71 70 70 70 68 66 64 62 58 53 49 46 43 42 42 41 38 36 34 35 35 34 34 34 33 33 33 32 31 31 32 34 35 36 37 38 39 39 37 37 37 38 39 39 39 40
2 4 8 10 12 13 15 18 20 22 24 26 27 28 31 34 37 39 42 45 48 52 55 59 62 66 70 73 76 80 84 86 85 84 83 82 79 77 76 74 73 72 71 70 69 67 65 62 59 54 49 47 45 45 45 42 39 38 38 37 35 35 35 35 34 33 33 31 31 31 32 33 33 34 35 35 37 38 38 39 39 39 38 38 39 41
3 4 7 10 12 13 14 16 18 19 21 22 24 26 28 30 34 37 40 43 45 49 52 55 59 63 66 69 72 77 81 83 83 82 82 82 79 77 76 75 73 71 70 69 68 67 65 63 59 54 51 49 48 47 46 43 41 40 39 37 36 36 36 35 34 34 33 31 31 30 31 33 35 36 36 36 37 38 39 39 38 37 37 38 40 41
4 5 8 10 11 13 13 14 16 18 20 22 26 27 27 30 34 36 38 39 42 45 48 51 54 57 61 64 68 73 77 80 80 76 77 81 79 75 75 74 72 70 69 68 67 66 64 62 58 54 53 53 51 49 46 44 43 41 40 38 38 37 36 35 34 34 33 32 31 31 32 34 35 35 34 34 35 37 38 38 37 36 36 37 39 40
5 7 10 11 12 13 14 14 15 19 22 25 29 30 30 32 34 36 36 37 40 44 46 48 50 52 56 60 63 68 73 78 79 72 70 78 80 75 74 74 71 70 69 67 66 65 64 62 59 57 56 55 52 50 48 46 44 43 41 39 38 37 36 36 35 35 35 34 33 33 33 33 32 31 31 33 35 36 37 36 35 34 35 37 39 40
6 9 11 12 13 14 15 16 17 19 22 25 28 30 32 32 33 34 35 36 38 41 42 43 45 48 52 55 60 65 68 74 79 74 68 73 79 77 75 74 71 70 69 68 67 66 64 63 61 60 58 56 53 51 50 48 45 44 42 40 39 38 38 37 37 37 36 34 34 34 32 31 31 32 33 35 36 36 35 34 33 34 35 36 37 38
9 11 12 13 14 14 15 16 18 19 21 23 24 26 28 30 31 32 33 36 37 36 36 39 40 43 48 52 56 62 66 70 75 76 70 69 75 78 76 73 72 70 69 68 67 65 63 63 62 61 58 55 53 52 51 48 47 45 42 40 40 40 40 39 38 38 37 35 35 34 33 33 33 35 36 36 37 36 33 30 31 34 35 34 32 34
12 15 15 16 16 15 15 15 15 17 19 20 23 24 25 26 28 29 30 34 34 29 25 32 38 39 43 49 53 58 65 68 72 75 72 68 71 77 78 75 72 70 68 67 66 64 63 62 63 62 58 54 53 53 52 50 48 45 42 42 42 42 41 40 40 39 38 37 36 35 35 34 34 36 37 38 38 36 31 29 34 36 33 30 29 33
15 18 19 20 19 18 17 16 14 14 15 17 20 23 25 25 26 27 29 33 34 26 17 25 35 38 39 44 50 55 61 67 70 73 74 70 69 73 77 76 73 70 67 65 65 64 64 63 63 61 59 57 56 55 53 50 47 44 43 43 43 42 41 40 40 40 39 38 37 36 35 35 35 37 39 39 39 36 30 28 34 36 32 30 33 34
17 20 22 22 21 21 20 18 16 14 14 15 17 21 25 26 27 27 29 32 33 28 17 19 30 38 41 44 49 53 58 64 68 70 72 72 70 70 73 74 73 71 69 68 67 66 65 65 63 61 59 59 58 55 52 49 46 44 44 43 42 40 38 36 36 37 37 37 37 37 37 36 37 39 39 39 39 37 31 30 33 32 31 33 36 37
18 21 23 24 24 24 23 21 18 15 13 15 16 18 22 25 27 29 30 32 33 30 23 19 22 33 42 46 49 53 55 59 64 66 68 72 72 71 70 70 71 72 72 71 70 69 67 66 64 61 60 58 56 53 50 47 45 45 44 41 38 34 29 27 29 32 33 34 35 36 36 36 37 39 39 38 37 36 34 34 34 32 33 37 41 43
19 23 25 26 26 27 25 21 18 15 14 16 16 17 19 22 26 30 33 35 34 32 32 26 19 27 41 46 48 51 53 54 57 58 60 64 69 71 71 70 70 71 72 71 70 68 67 65 64 63 62 59 55 52 49 47 46 44 40 37 34 30 27 27 29 31 30 31 32 31 30 31 33 36 38 36 34 35 38 39 37 35 36 39 42 43
20 23 26 27 27 27 24 20 17 17 17 17 16 17 18 17 20 27 35 38 36 34 34 27 21 31 44 47 48 51 53 54 55 55 55 58 62 67 70 71 71 70 71 70 69 67 64 61 59 60 61 59 56 53 51 49 47 42 38 36 33 30 28 29 31 32 30 31 32 31 29 27 27 28 30 29 30 36 43 44 43 42 42 42 43 43
20 23 25 26 27 26 23 20 20 19 19 19 17 17 19 19 19 25 33 38 37 35 32 27 27 39 48 48 49 52 52 53 56 58 58 59 60 63 65 67 68 68 68 69 68 66 64 61 57 55 55 55 55 53 52 51 47 43 41 38 33 30 29 29 30 32 32 32 32 32 30 29 26 22 22 23 26 35 44 47 46 45 45 47 48 49
19 22 25 26 27 27 24 22 22 21 19 19 19 19 20 21 22 24 31 36 35 32 31 28 30 38 46 49 51 53 53 54 55 56 57 58 61 63 64 64 65 66 67 67 67 66 65 64 61 58 56 56 55 54 54 51 47 44 43 41 37 35 35 35 37 39 40 39 36 31 29 30 27 23 21 22 23 33 45 50 48 46 47 49 51 53
18 21 24 26 26 26 25 24 24 24 22 21 20 20 19 18 18 19 26 31 30 28 28 26 26 30 38 46 52 54 55 58 58 57 57 60 61 63 64 65 66 67 68 68 67 65 64 65 64 63 61 58 56 55 55 51 46 43 43 42 40 40 40 42 45 46 46 47 45 36 29 29 29 27 26 25 25 32 42 47 47 47 49 51 52 54
18 20 23 25 26 28 29 27 26 26 26 24 21 20 19 18 16 14 20 26 27 27 26 21 18 18 22 31 43 52 57 60 63 62 62 62 62 62 62 64 65 66 67 67 67 66 65 66 66 64 62 59 58 57 54 49 45 44 44 45 44 43 43 46 49 48 48 51 53 47 37 33 32 31 31 31 31 34 40 43 44 45 47 48 50 51
18 20 21 23 25 28 30 30 29 28 27 25 22 20 20 19 18 17 21 24 26 27 26 20 17 17 15 18 28 39 47 52 59 65 67 66 65 64 64 64 65 65 65 66 67 67 68 68 67 65 62 60 59 57 52 47 46 47 46 47 48 47 45 46 47 47 48 52 55 53 48 42 37 35 36 38 37 37 39 43 45 45 47 49 50 50
18 19 21 21 23 28 32 33 32 29 26 24 22 22 21 21 21 24 27 28 28 29 28 23 21 23 20 19 25 30 36 42 48 55 63 67 68 68 67 66 67 67 67 67 67 68 69 68 67 65 63 61 60 56 51 49 49 49 48 50 52 50 46 44 43 45 49 52 50 48 45 42 40 39 39 38 36 36 39 43 46 47 49 51 51 51
19 20 22 21 23 29 35 35 31 27 25 25 24 23 22 23 24 26 27 27 28 29 28 26 25 25 21 20 22 26 33 41 44 47 53 59 63 66 67 67 67 67 66 66 66 66 65 65 64 63 62 61 59 55 51 51 53 52 50 52 54 51 47 45 45 46 48 49 47 43 42 43 44 42 37 35 37 40 42 44 46 48 50 52 52 52
Wind_Direction
238 237 237 236 236 236 235 234 233 232 231 231 230 229 227 226 225 223 223 224 226 227 228 228 223 219 222 224 226 228 228 228 229 228 226 228 230 234 236 235 236 237 238 239 240 242 244 246 249 252 254 256 258 260 260 261 263 263 264 264 263 264 265 265 265 266 266 267 267 267 267 269 272 274 276 277 279 282 284 284 286 289 291 294 295 292
238 237 237 237 236 235 235 234 232 231 231 231 230 229 228 226 226 224 224 224 226 227 228 228 223 219 222 225 226 228 227 227 229 229 228 227 228 232 235 235 234 235 237 238 239 241 243 246 249 252 254 256 258 259 261 262 262 261 261 262 262 264 265 266 265 265 266 266 266 266 266 268 271 273 276 279 281 282 283 284 285 288 290 291 291 289
239 237 236 236 236 235 234 234 232 232 231 231 230 229 228 226 225 225 224 224 227 228 227 227 224 219 222 225 226 228 228 227 228 230 229 228 229 231 235 236 235 235 236 237 238 240 242 245 248 251 253 255 258 259 261 262 261 260 260 260 261 263 265 266 265 265 265 266 266 265 266 268 270 273 275 278 280 280 281 282 283 286 289 289 287 286
238 237 236 235 234 234 234 233 232 231 231 231 231 230 228 227 225 225 225 224 227 228 227 226 223 219 221 225 226 227 227 226 227 228 229 228 229 231 235 237 236 236 236 237 238 240 241 243 246 248 250 254 257 259 260 261 261 260 259 259 260 262 264 265 265 265 264 264 265 265 266 267 269 270 273 276 278 280 281 281 281 284 287 286 284 285
237 237 236 234 233 233 233 232 232 231 231 231 231 230 228 227 226 225 225 225 226 228 227 225 223 219 220 224 225 226 227 227 227 228 229 229 229 230 233 236 236 235 236 237 238 240 241 241 243 245 248 251 255 258 259 258 260 260 259 259 260 261 262 264 265 266 265 264 264 265 266 266 267 269 272 274 278 282 282 280 279 281 284 283 283 284
235 235 235 234 233 231 231 230 230 229 229 229 230 229 228 227 226 224 224 225 226 226 226 225 223 220 221 224 225 227 228 228 229 230 231 231 230 231 232 235 236 235 235 236 237 239 240 241 242 244 246 248 251 255 256 256 257 257 257 259 260 261 262 263 264 265 265 265 265 266 266 267 268 269 271 272 276 282 282 279 280 282 283 283 284 284
232 233 233 232 232 230 229 228 228 227 227 227 228 228 228 226 226 224 224 226 226 225 224 225 224 219 221 224 223 226 228 228 229 230 231 231 231 232 233 235 237 237 236 236 237 238 239 240 241 242 243 244 248 252 253 253 254 254 256 259 260 261 261 261 263 264 265 266 265 266 266 267 268 270 270 269 273 279 279 278 282 284 284 284 284 284
230 231 231 231 230 229 228 227 226 226 225 224 225 226 226 226 226 224 224 225 226 225 223 224 224 219 220 223 222 223 226 227 227 229 231 231 232 233 234 235 237 237 237 237 237 237 238 239 240 241 242 243 247 249 250 251 252 254 256 258 258 259 259 261 263 264 265 265 265 265 266 267 267 268 268 267 271 276 277 279 283 284 285 285 285 284
230 230 230 230 229 228 227 226 225 225 223 221 222 224 224 224 225 224 224 225 225 225 222 222 222 219 219 222 223 224 225 226 226 228 230 232 233 235 236 237 238 238 238 238 238 238 238 238 239 241 243 244 246 248 249 250 251 254 255 256 255 256 258 260 262 264 264 265 266 266 266 267 267 268 268 267 270 275 277 280 282 283 284 285 284 283
231 231 230 229 229 229 227 226 225 225 222 220 221 222 222 222 223 224 224 224 224 225 222 221 222 220 218 219 222 224 225 226 227 229 231 234 236 236 237 238 238 238 239 239 240 240 240 239 240 241 243 244 246 248 249 250 251 252 253 254 255 256 257 259 261 262 263 265 265 265 266 267 267 268 269 270 272 276 279 280 281 282 284 284 283 282
233 232 231 229 228 228 227 226 225 225 222 218 219 221 221 221 222 223 223 224 224 224 222 221 222 221 217 217 221 224 225 226 227 230 232 233 234 234 235 235 236 238 239 240 241 241 241 241 240 242 243 245 246 247 248 250 250 250 252 254 256 257 258 259 261 262 263 264 264 265 266 267 268 269 271 272 274 276 278 280 281 282 283 283 281 282
234 232 232 230 227 226 225 225 224 224 222 218 218 219 220 220 220 221 222 223 223 223 221 221 222 222 218 216 219 223 224 225 226 227 229 231 233 233 233 234 234 236 238 239 240 241 242 241 241 243 244 244 246 247 247 248 249 250 252 254 257 258 259 260 261 262 262 263 264 265 267 268 269 270 271 272 274 276 278 279 280 281 282 281 280 283
237 233 230 229 227 225 224 224 224 223 222 219 217 218 219 219 219 220 221 223 223 222 220 221 223 223 219 215 218 221 222 223 225 225 226 228 231 232 232 232 232 233 235 237 239 240 241 241 242 243 243 243 244 246 247 247 249 251 252 254 256 257 258 260 261 261 262 262 264 265 266 267 269 270 271 273 274 276 278 279 280 280 280 280 281 285
238 234 229 227 226 225 224 223 223 222 221 219 217 217 218 218 219 220 221 222 223 221 219 221 223 223 218 214 216 219 220 222 224 225 226 227 229 231 231 231 229 229 231 233 235 237 239 240 240 241 242 243 244 245 247 248 249 250 251 252 253 255 257 258 259 259 260 261 263 264 265 267 268 270 272 273 275 277 278 279 279 280 280 281 283 286
237 234 229 227 226 225 224 223 222 221 220 218 217 217 217 218 218 219 220 222 222 220 219 220 223 223 217 212 215 217 218 221 223 223 225 226 228 229 229 229 228 228 230 231 233 235 236 237 238 239 241 243 243 244 246 248 248 250 251 251 252 254 255 256 256 257 259 260 262 263 265 266 268 270 272 274 276 277 277 278 278 279 280 282 284 285
236 235 230 227 227 226 224 224 224 222 220 218 216 217 217 217 218 218 218 220 221 220 218 219 222 221 216 211 213 216 217 220 221 222 224 225 226 228 228 228 227 229 231 232 233 235 236 236 237 238 239 241 242 243 245 246 248 249 251 252 253 254 255 256 255 256 257 259 261 263 264 266 267 269 272 274 275 276 276 276 277 278 280 281 283 284
236 236 232 228 227 225 222 223 225 224 222 220 218 217 216 217 218 218 218 218 219 219 218 218 220 220 216 211 211 214 215 217 219 221 223 224 225 226 227 227 227 228 231 233 235 236 236 236 237 237 239 240 242 243 244 245 246 249 251 252 253 254 255 256 256 256 258 259 261 262 264 265 267 269 271 273 274 274 274 274 276 277 279 280 282 284
238 235 231 226 225 224 221 221 223 223 222 222 220 218 216 216 217 217 218 217 218 219 217 217 218 218 214 210 209 212 214 215 217 220 222 222 223 224 225 226 227 228 230 232 234 236 236 236 237 238 239 240 241 242 244 245 247 249 250 252 252 252 253 254 256 256 257 259 261 263 264 266 268 270 271 272 272 272 272 273 274 276 278 280 282 284
241 235 230 227 226 225 222 221 221 222 222 222 221 219 217 217 217 217 218 218 219 220 218 217 218 216 213 210 209 212 213 214 216 219 222 222 222 223 223 224 225 227 229 231 233 235 236 237 238 238 238 239 240 241 243 245 247 248 249 250 250 250 251 253 255 256 257 258 260 262 264 266 268 269 270 271 271 271 272 273 274 276 278 280 282 284
243 237 231 230 229 227 224 221 219 220 221 221 220 219 218 218 218 218 218 219 220 221 219 217 217 216 212 209 210 211 212 213 214 217 220 221 221 222 222 222 223 225 228 230 232 234 235 236 236 236 236 236 238 240 242 243 245 246 248 249 249 249 250 252 254 255 256 257 259 261 263 265 267 268 269 270 271 272 273 274 275 277 278 280 282 284
244 239 233 231 230 227 224 221 218 217 219 220 219 218 217 217 217 217 218 218 219 220 219 217 217 215 211 208 209 210 211 212 214 215 218 219 219 219 220 221 221 222 225 227 230 232 233 234 234 233 234 235 237 239 240 241 242 243 245 246 247 248 249 251 252 254 256 257 259 260 262 264 265 266 267 269 271 272 273 275 276 277 278 280 282 284
244 240 235 231 229 226 223 221 218 216 216 217 218 217 215 215 215 216 217 218 219 219 218 217 217 215 211 207 208 209 210 211 212 214 216 217 217 217 217 218 218 219 223 225 226 229 230 231 232 231 232 235 236 237 237 238 239 240 243 245 246 247 248 250 252 254 256 257 258 259 261 262 263 264 266 268 270 272 273 275 276 277 279 281 283 285
246 240 234 229 226 226 223 220 217 214 213 213 215 216 215 214 214 214 215 217 218 218 217 216 216 215 210 207 208 209 209 208 209 211 213 215 216 216 216 216 216 217 220 223 225 227 228 229 230 230 231 233 234 234 235 236 238 240 243 244 245 246 248 250 252 254 256 257 258 259 260 261 262 264 266 267 269 271 272 274 276 278 280 282 284 286
245 237 232 226 221 221 220 218 216 214 212 211 211 213 213 213 213 214 214 216 218 218 216 214 214 213 209 207 208 209 208 208 208 209 210 212 214 215 215 215 215 216 219 222 224 227 228 229 230 230 230 231 231 232 233 235 238 240 242 243 244 247 249 252 254 256 258 259 260 260 261 261 263 265 266 267 268 270 272 274 277 279 281 282 284 286
243 234 230 223 217 214 212 211 214 215 214 212 210 210 211 211 211 212 212 213 215 216 215 214 213 211 208 206 207 209 209 207 207 209 210 211 212 214 214 214 214 215 218 220 224 227 229 230 231 231 230 228 228 230 232 235 237 240 241 243 246 248 252 254 257 258 259 260 260 261 261 262 264 265 266 267 269 271 273 276 278 280 281 283 284 286
239 228 226 221 214 210 204 200 203 208 210 211 211 210 210 210 210 211 211 212 213 214 213 212 211 209 207 206 207 209 208 207 206 208 209 210 211 212 213 214 214 215 218 220 223 226 228 230 231 231 230 228 227 230 232 234 236 238 241 243 246 249 253 255 257 258 258 259 259 260 261 262 263 265 266 268 270 273 275 277 278 280 282 284 285 285
221 214 215 216 209 203 199 195 196 199 201 204 207 209 209 209 210 210 210 211 213 212 211 210 210 208 206 205 206 208 208 207 206 206 208 209 210 211 212 213 214 216 218 221 223 225 227 229 231 232 231 229 229 230 232 233 236 238 240 243 246 250 254 256 257 258 258 258 259 260 261 263 264 265 267 270 272 274 275 276 279 282 284 284 284 284
191 187 192 205 203 195 192 191 191 194 196 196 198 202 206 208 208 208 209 210 211 211 209 209 209 209 207 206 206 207 207 207 206 205 205 207 209 210 210 211 214 217 219 221 223 225 227 229 231 232 231 231 231 232 233 234 236 238 241 244 248 251 254 256 258 259 258 257 257 258 261 264 266 267 268 270 270 271 273 278 282 285 285 285 285 285
171 164 167 189 197 190 185 185 186 189 193 193 193 194 197 201 204 204 205 207 208 208 208 209 209 208 207 206 206 206 207 207 206 204 204 205 207 208 209 210 213 216 219 221 223 225 227 229 231 232 232 231 232 234 234 235 238 240 242 246 249 251 253 256 257 258 257 256 257 260 264 266 267 268 268 267 268 270 276 282 285 286 285 285 286 287
167 157 155 172 190 188 183 182 181 183 188 192 193 191 190 193 197 201 202 203 204 205 206 207 208 207 207 206 205 205 206 207 206 204 204 205 206 207 208 209 212 215 218 221 222 224 227 229 231 231 231 231 232 235 236 237 238 240 243 247 249 251 252 254 255 256 257 258 259 262 264 264 265 267 267 268 269 273 279 283 284 284 284 285 286 286
135 154 149 156 176 186 184 180 178 179 183 187 190 190 189 189 193 198 199 199 201 204 205 206 205 206 206 205 204 204 204 206 205 203 203 204 205 206 207 209 212 214 217 220 222 224 226 228 230 230 231 232 234 236 237 238 239 240 243 247 248 250 252 253 255 257 259 260 261 262 263 264 266 268 269 270 272 275 278 280 280 281 282 284 285 286
41 146 146 152 164 176 182 180 176 177 179 181 183 185 188 189 192 196 197 197 199 202 205 205 203 203 204 204 203 203 203 204 204 202 202 203 204 205 207 210 211 213 216 219 221 223 225 228 230 231 231 232 234 237 238 239 240 241 243 246 249 251 253 255 257 259 260 261 262 263 264 267 269 270 270 271 273 275 276 277 278 280 282 283 284 285
48 136 145 152 157 163 173 176 174 175 177 177 178 180 185 189 191 194 196 197 199 201 203 204 203 202 202 202 201 201 201 203 203 201 201 203 203 204 206 209 211 213 215 217 220 223 225 228 230 231 232 233 234 236 238 239 241 242 244 247 250 252 254 255 256 259 261 263 264 266 267 267 268 269 271 273 275 275 276 277 279 281 282 282 284 287
66 138 145 150 153 155 163 168 169 171 171 172 173 176 182 188 191 195 196 196 198 200 203 205 204 203 202 200 199 199 199 201 201 200 201 203 202 203 206 209 212 213 215 217 220 222 225 228 230 231 232 234 235 236 238 241 242 243 245 248 250 252 253 255 257 259 262 264 265 266 266 267 269 271 274 276 276 276 277 279 281 282 283 285 288 291
83 133 139 143 146 147 152 159 162 163 164 169 171 172 179 188 192 195 195 195 197 199 202 204 205 204 202 199 198 198 198 198 198 199 202 203 203 203 207 210 212 214 215 218 220 223 225 228 230 231 232 233 235 236 238 241 242 243 245 248 250 252 253 256 258 260 262 264 265 266 267 268 270 273 276 277 277 278 280 282 283 285 287 289 291 292
93 124 131 134 137 140 144 148 155 161 168 174 175 173 179 190 194 193 192 194 196 198 200 202 203 204 202 198 196 197 198 197 196 197 201 203 202 204 207 210 213 214 215 217 220 222 225 227 228 230 231 233 234 236 238 240 242 244 246 248 251 253 254 256 258 259 261 264 267 269 269 268 270 275 280 280 279 279 281 285 289 289 291 292 292 290
96 117 126 131 133 137 142 145 152 164 174 181 181 179 182 189 194 193 191 191 195 198 199 200 201 203 201 198 195 195 196 196 196 196 198 201 202 204 207 210 213 215 215 217 219 221 223 225 227 228 231 233 234 235 238 240 242 244 247 249 252 253 254 256 258 261 264 267 270 271 270 268 272 279 282 281 279 279 283 290 293 292 292 292 291 290
101 110 118 123 125 130 138 146 155 167 176 182 183 185 188 190 192 193 192 191 192 193 195 197 198 201 201 197 195 195 194 195 197 197 198 200 202 205 207 210 213 215 216 217 219 221 223 225 227 228 230 232 233 235 237 239 241 244 246 249 251 253 256 258 261 264 266 268 271 272 271 271 276 280 280 277 277 279 285 293 295 292 290 288 289 292
110 111 111 112 113 118 126 137 151 164 173 178 180 183 188 191 192 191 192 192 184 179 190 197 195 197 200 197 194 194 194 194 196 198 199 200 203 205 207 209 212 214 217 218 220 221 222 225 227 228 229 231 233 234 236 238 240 242 245 248 251 254 257 260 264 267 270 273 274 274 273 274 276 277 275 274 275 277 283 290 288 284 280 282 290 290
119 118 115 112 114 115 117 123 135 150 163 170 176 180 182 186 189 186 190 191 176 163 182 202 194 191 194 194 194 194 194 195 197 198 200 202 205 206 207 209 212 213 215 218 221 222 223 224 227 228 229 230 232 233 235 237 240 243 246 248 251 256 261 267 272 276 278 279 279 278 276 275 274 273 273 273 275 275 275 274 273 271 273 282 288 283
127 124 120 118 117 112 110 112 117 127 144 156 170 181 182 183 183 179 184 185 169 155 169 199 197 192 190 190 191 192 194 196 198 199 201 203 207 208 208 209 212 213 215 217 219 221 222 224 226 228 229 230 232 234 236 238 240 243 245 248 254 262 269 277 282 283 282 282 281 279 277 275 273 272 272 272 273 275 272 265 264 269 273 275 275 271
131 126 123 121 117 110 105 103 102 108 127 144 160 178 185 185 179 173 178 177 161 154 166 183 193 196 194 190 188 189 191 195 198 200 202 205 208 210 210 211 212 213 216 217 219 220 222 223 225 227 228 230 232 234 236 237 239 241 245 251 259 266 272 278 281 280 280 280 279 278 278 278 275 272 271 272 274 276 275 270 268 269 266 263 266 270
135 130 126 121 116 110 103 98 98 108 126 140 153 168 180 186 181 172 173 175 169 167 174 179 191 201 196 191 188 186 187 190 194 198 202 206 210 212 213 214 215 216 217 219 221 222 223 225 226 228 229 230 231 232 234 236 238 241 246 251 255 258 262 268 273 275 275 274 273 273 276 279 278 276 275 275 275 275 274 271 268 263 259 262 269 272
142 135 129 124 120 114 106 104 109 116 125 130 140 154 162 174 182 176 175 180 182 178 172 174 197 204 195 189 188 186 185 186 188 192 197 201 207 211 214 216 217 218 218 220 222 223 223 224 226 227 228 229 230 232 233 235 237 240 242 245 248 254 263 269 271 269 267 266 264 265 267 270 274 281 283 277 269 270 273 273 269 264 262 266 270 271
155 146 138 134 129 122 116 117 119 119 121 125 130 140 146 152 165 173 175 180 185 184 177 180 200 202 195 190 188 187 187 187 188 191 195 199 203 207 211 215 217 219 220 220 222 223 222 222 223 224 226 227 228 231 232 234 236 237 237 238 241 251 264 271 270 266 264 263 260 257 257 260 263 273 278 270 262 265 270 271 269 268 268 270 272 273
169 158 150 144 137 130 126 127 126 122 121 123 126 132 139 146 154 166 174 175 177 182 187 196 203 200 194 192 190 188 187 187 189 193 197 200 202 204 207 210 213 216 218 219 221 222 222 223 224 225 227 227 228 230 231 232 234 235 237 236 232 233 244 254 256 256 258 262 264 259 254 254 255 258 261 259 256 259 263 266 267 267 268 269 270 271
181 170 160 154 146 140 138 137 133 128 123 120 120 125 133 140 146 166 180 178 173 175 183 193 200 196 192 192 193 192 189 187 188 193 197 198 201 204 207 209 210 214 216 218 219 220 221 223 224 226 228 229 230 231 231 231 231 232 235 237 230 225 229 239 244 246 248 254 260 263 262 260 258 255 254 253 251 252 258 265 269 270 269 270 271 273
192 182 173 165 156 151 148 142 136 132 129 124 122 125 133 137 138 159 180 180 176 177 180 185 190 189 191 198 199 197 195 193 191 193 196 197 200 204 208 210 212 215 218 219 220 221 222 223 225 227 229 230 232 232 232 232 231 229 232 235 232 226 225 229 233 238 241 245 250 256 266 273 268 260 258 260 258 256 260 266 271 273 274 275 277 278
204 195 187 178 167 158 150 141 136 135 132 128 128 133 140 142 139 149 165 170 173 178 182 185 178 167 178 214 215 206 203 201 197 196 198 199 200 203 207 210 213 215 217 220 221 223 224 226 228 229 230 232 233 233 232 232 231 229 230 233 231 228 226 225 227 233 238 242 246 253 264 272 272 267 267 268 266 266 268 269 269 272 276 277 277 279
214 206 199 191 175 159 149 142 139 139 136 134 138 142 143 143 142 145 152 156 161 166 171 173 166 158 172 214 229 220 211 207 204 203 203 204 205 206 209 212 215 216 218 221 223 225 227 228 229 231 231 232 233 232 231 230 230 228 230 232 231 229 227 224 225 232 238 240 245 252 259 265 268 270 270 267 268 272 275 273 271 271 273 274 275 277
214 211 207 200 178 159 151 146 142 141 142 144 146 146 145 147 148 148 150 152 155 158 160 160 158 156 166 195 213 211 208 208 208 208 209 210 210 210 211 215 218 219 220 222 224 226 227 228 229 231 232 232 233 231 229 228 229 229 230 231 231 228 226 224 226 230 236 241 245 248 251 257 265 268 264 262 267 272 273 271 269 269 269 270 273 277
Height
10469 10478 10486 10500 10511 10515 10518 10522 10531 10539 10540 10542 10549 10560 10570 10577 10585 10593 10599 10603 10601 10598 10598 10606 10630 10647 10645 10646 10648 10649 10657 10662 10665 10672 10679 10683 10687 10690 10695 10704 10714 10723 10730 10734 10740 10745 10747 10749 10752 10756 10760 10761 10761 10760 10760 10763 10765 10766 10767 10767 10768 10770 10771 10774 10777 10778 10778 10778 10777 10777 10775 10775 10776 10777 10777 10777 10777 10777 10778 10778 10778 10777 10776 10775 10774 10773
10457 10466 10479 10492 10497 10497 10497 10503 10515 10522 10525 10530 10537 10548 10560 10568 10578 10586 10591 10595 10591 10587 10592 10603 10625 10640 10638 10639 10641 10641 10647 10655 10659 10663 10671 10677 10681 10684 10687 10697 10709 10717 10724 10730 10737 10741 10743 10746 10749 10751 10755 10756 10755 10755 10756 10759 10761 10763 10763 10763 10765 10766 10768 10770 10772 10774 10775 10775 10774 10773 10772 10771 10772 10773 10773 10773 10774 10774 10774 10774 10774 10774 10772 10771 10770 10769
10444 10456 10470 10476 10475 10476 10480 10489 10501 10510 10513 10519 10526 10536 10548 10561 10571 10576 10583 10588 10582 10578 10588 10600 10617 10633 10633 10631 10634 10633 10638 10649 10654 10656 10662 10669 10674 10677 10680 10690 10703 10711 10719 10728 10733 10737 10740 10742 10744 10747 10750 10750 10750 10751 10752 10755 10756 10758 10758 10759 10761 10763 10764 10766 10768 10770 10771 10771 10770 10769 10768 10768 10768 10769 10770 10770 10770 10770 10770 10770 10770 10770 10768 10767 10766 10765
10433 10446 10453 10452 10453 10458 10467 10477 10488 10497 10502 10509 10517 10526 10541 10554 10561 10567 10574 10577 10570 10568 10581 10594 10609 10624 10624 10620 10624 10624 10629 10639 10643 10645 10650 10657 10666 10672 10677 10685 10697 10706 10715 10722 10727 10732 10736 10738 10740 10743 10745 10746 10746 10746 10748 10750 10752 10753 10754 10755 10758 10759 10760 10762 10763 10766 10767 10767 10766 10765 10765 10764 10765 10765 10766 10767 10767 10767 10766 10766 10766 10765 10764 10763 10762 10761
10425 10432 10432 10432 10437 10446 10455 10464 10474 10483 10491 10498 10507 10517 10532 10543 10549 10558 10562 10561 10558 10560 10574 10588 10600 10614 10614 10610 10614 10616 10621 10629 10634 10638 10642 10650 10661 10669 10675 10681 10690 10702 10711 10717 10723 10727 10731 10734 10736 10738 10740 10741 10741 10741 10743 10746 10748 10749 10749 10751 10754 10756 10757 10758 10760 10761 10762 10762 10762 10762 10761 10761 10761 10761 10763 10764 10764 10763 10762 10761 10761 10761 10760 10759 10758 10757
10415 10415 10412 10415 10422 10431 10440 10449 10457 10467 10476 10486 10495 10506 10520 10530 10536 10545 10548 10546 10544 10549 10567 10581 10589 10605 10608 10604 10610 10615 10619 10626 10632 10636 10640 10649 10659 10666 10672 10677 10687 10700 10709 10714 10718 10721 10725 10729 10731 10733 10736 10737 10736 10735 10737 10741 10744 10744 10745 10747 10749 10752 10753 10753 10755 10757 10757 10758 10758 10758 10757 10757 10757 10758 10759 10760 10760 10760 10758 10757 10757 10757 10756 10755 10754 10753
10401 10394 10393 10400 10406 10414 10424 10433 10442 10450 10459 10471 10484 10495 10506 10515 10521 10530 10535 10532 10530 10542 10565 10572 10578 10598 10600 10594 10604 10610 10611 10620 10627 10630 10635 10644 10653 10660 10669 10677 10687 10699 10706 10711 10713 10717 10721 10724 10726 10728 10730 10730 10728 10729 10733 10738 10740 10740 10741 10743 10745 10747 10748 10749 10751 10752 10753 10754 10754 10754 10753 10753 10753 10754 10755 10756 10756 10756 10755 10754 10753 10753 10752 10751 10750 10750
10381 10376 10380 10387 10393 10400 10410 10421 10430 10435 10443 10459 10475 10482 10490 10500 10507 10515 10520 10517 10521 10539 10556 10556 10565 10586 10586 10584 10597 10601 10601 10611 10618 10622 10628 10638 10648 10658 10669 10679 10689 10696 10702 10706 10709 10713 10717 10719 10722 10723 10724 10724 10722 10724 10730 10734 10735 10736 10738 10740 10741 10742 10743 10744 10746 10748 10749 10749 10750 10749 10749 10748 10749 10750 10751 10751 10751 10751 10751 10750 10749 10748 10747 10747 10746 10746
10365 10365 10371 10378 10383 10391 10401 10412 10418 10419 10429 10450 10462 10465 10474 10486 10492 10500 10503 10504 10513 10525 10533 10539 10552 10569 10575 10582 10594 10596 10595 10604 10612 10619 10628 10639 10651 10662 10672 10680 10687 10692 10696 10700 10704 10708 10712 10715 10717 10717 10718 10718 10718 10721 10725 10728 10731 10733 10734 10735 10736 10738 10739 10740 10742 10744 10744 10745 10745 10745 10744 10744 10745 10745 10746 10747 10747 10747 10746 10745 10744 10744 10743 10742 10742 10741
10357 10360 10364 10371 10379 10386 10395 10402 10404 10404 10417 10439 10447 10449 10461 10471 10477 10485 10487 10493 10501 10503 10514 10532 10542 10555 10569 10581 10588 10588 10591 10603 10614 10624 10635 10646 10654 10662 10669 10675 10681 10686 10690 10694 10698 10702 10706 10709 10711 10711 10712 10713 10714 10716 10720 10723 10726 10728 10729 10729 10731 10734 10735 10737 10738 10739 10740 10741 10740 10740 10740 10740 10740 10741 10742 10743 10743 10743 10742 10741 10740 10739 10739 10738 10738 10737
10352 10355 10359 10368 10374 10379 10384 10388 10390 10394 10408 10427 10434 10438 10450 10458 10465 10470 10473 10482 10484 10485 10507 10530 10536 10547 10563 10575 10580 10582 10592 10609 10621 10629 10638 10644 10647 10653 10661 10667 10674 10679 10684 10689 10692 10696 10699 10703 10705 10706 10708 10709 10709 10712 10715 10718 10720 10722 10724 10724 10726 10729 10731 10732 10733 10735 10736 10736 10735 10735 10736 10737 10736 10737 10738 10739 10739 10738 10737 10736 10735 10734 10734 10734 10733 10732
10347 10351 10355 10362 10366 10369 10373 10376 10381 10387 10399 10416 10423 10428 10436 10444 10452 10456 10460 10465 10464 10476 10509 10529 10532 10539 10554 10571 10578 10583 10598 10612 10620 10626 10631 10635 10639 10647 10655 10662 10669 10674 10677 10682 10686 10689 10692 10696 10699 10701 10703 10704 10704 10706 10709 10711 10714 10717 10720 10720 10722 10724 10726 10727 10729 10730 10731 10730 10730 10730 10731 10732 10732 10733 10734 10735 10735 10734 10733 10732 10731 10730 10730 10730 10729 10728
10342 10346 10351 10355 10357 10362 10365 10369 10375 10381 10391 10405 10414 10417 10422 10431 10438 10441 10448 10453 10458 10484 10514 10527 10527 10529 10548 10572 10579 10584 10600 10610 10614 10620 10624 10629 10635 10641 10648 10655 10663 10668 10671 10676 10679 10682 10686 10690 10694 10695 10696 10697 10699 10700 10702 10706 10710 10713 10716 10717 10717 10719 10721 10723 10724 10724 10725 10725 10725 10726 10727 10727 10728 10729 10730 10730 10730 10729 10728 10727 10726 10726 10726 10725 10724 10723
10337 10341 10345 10347 10349 10353 10357 10363 10368 10374 10384 10395 10403 10406 10411 10420 10426 10432 10443 10449 10461 10489 10513 10522 10517 10517 10543 10569 10574 10583 10599 10604 10608 10616 10621 10626 10629 10634 10641 10648 10656 10662 10666 10670 10673 10676 10679 10684 10687 10688 10689 10691 10694 10695 10697 10701 10705 10708 10711 10712 10712 10713 10716 10718 10719 10719 10720 10720 10720 10721 10722 10723 10724 10725 10725 10726 10726 10725 10723 10722 10722 10721 10721 10720 10719 10718
10331 10334 10337 10340 10343 10346 10351 10357 10360 10365 10373 10382 10390 10394 10400 10410 10417 10429 10440 10447 10463 10487 10505 10509 10498 10503 10537 10565 10572 10584 10595 10598 10604 10612 10616 10619 10623 10629 10635 10643 10651 10657 10660 10664 10667 10670 10673 10676 10679 10681 10683 10686 10688 10690 10693 10696 10700 10702 10705 10706 10707 10708 10710 10712 10714 10715 10715 10715 10716 10716 10717 10718 10719 10720 10720 10721 10721 10720 10719 10717 10717 10717 10716 10715 10714 10713
10327 10328 10332 10337 10339 10342 10349 10352 10353 10358 10365 10371 10378 10381 10391 10403 10411 10421 10430 10440 10458 10473 10484 10485 10480 10498 10537 10561 10571 10582 10589 10594 10600 10605 10607 10611 10618 10625 10631 10640 10648 10653 10656 10659 10662 10665 10667 10670 10672 10675 10678 10680 10682 10686 10689 10691 10694 10696 10698 10699 10701 10704 10705 10707 10708 10709 10710 10710 10711 10711 10712 10713 10714 10715 10716 10717 10717 10716 10714 10713 10712 10712 10711 10710 10709 10708
10324 10326 10330 10334 10335 10338 10343 10344 10346 10353 10360 10366 10370 10376 10389 10399 10402 10410 10419 10431 10444 10450 10460 10468 10475 10500 10532 10552 10567 10575 10578 10584 10589 10594 10600 10606 10614 10621 10629 10638 10644 10648 10652 10655 10658 10660 10661 10664 10667 10670 10673 10675 10678 10682 10684 10685 10688 10691 10692 10694 10697 10699 10700 10700 10701 10704 10705 10705 10705 10706 10707 10708 10709 10710 10711 10712 10712 10711 10709 10708 10707 10706 10705 10705 10704 10703
10321 10323 10327 10328 10329 10331 10334 10336 10340 10347 10353 10359 10366 10374 10383 10387 10391 10402 10413 10424 10431 10435 10448 10462 10473 10497 10523 10542 10557 10563 10566 10575 10583 10589 10596 10602 10610 10618 10627 10635 10639 10644 10647 10650 10652 10654 10655 10659 10662 10665 10668 10671 10674 10677 10679 10680 10683 10686 10688 10690 10692 10694 10694 10693 10695 10698 10699 10699 10699 10700 10701 10703 10704 10706 10706 10707 10706 10705 10704 10703 10703 10702 10700 10700 10699 10698
10318 10320 10323 10323 10324 10327 10330 10333 10338 10344 10349 10354 10361 10369 10377 10381 10390 10401 10410 10421 10428 10432 10447 10462 10475 10496 10518 10535 10548 10553 10560 10571 10580 10586 10591 10599 10608 10616 10624 10630 10633 10638 10641 10644 10647 10648 10651 10654 10657 10661 10663 10666 10669 10672 10674 10676 10679 10681 10683 10685 10687 10688 10687 10688 10690 10691 10692 10693 10694 10695 10697 10698 10700 10700 10701 10701 10701 10699 10699 10698 10698 10697 10696 10695 10694 10693
10316 10318 10320 10321 10322 10325 10328 10331 10336 10342 10346 10352 10359 10367 10375 10382 10390 10398 10408 10419 10425 10431 10446 10462 10475 10493 10511 10529 10541 10548 10557 10566 10573 10579 10585 10594 10604 10612 10619 10623 10628 10633 10636 10640 10642 10643 10646 10649 10651 10655 10658 10661 10664 10667 10670 10672 10674 10676 10678 10680 10682 10681 10682 10683 10684 10685 10687 10688 10689 10691 10692 10693 10695 10695 10696 10696 10695 10694 10694 10693 10693 10692 10691 10690 10689 10688
10315 10316 10318 10319 10321 10323 10326 10329 10333 10338 10343 10350 10357 10364 10371 10377 10385 10394 10404 10413 10417 10425 10441 10458 10471 10486 10505 10523 10534 10541 10552 10560 10567 10572 10577 10585 10595 10604 10610 10615 10622 10627 10630 10633 10636 10637 10640 10642 10646 10650 10653 10657 10660 10663 10666 10668 10669 10672 10673 10675 10676 10676 10677 10678 10679 10680 10682 10684 10685 10686 10688 10689 10689 10690 10690 10691 10689 10689 10688 10688 10687 10687 10686 10686 10685 10684
10314 10315 10316 10317 10319 10321 10324 10327 10331 10336 10341 10347 10353 10359 10365 10371 10378 10388 10397 10404 10410 10420 10438 10455 10468 10482 10501 10517 10525 10531 10540 10549 10556 10562 10569 10577 10585 10594 10600 10607 10615 10621 10623 10626 10629 10630 10632 10636 10641 10645 10649 10653 10656 10659 10662 10663 10665 10668 10669 10671 10671 10672 10672 10673 10674 10676 10677 10679 10681 10682 10683 10683 10684 10684 10685 10685 10684 10683 10683 10682 10682 10682 10682 10681 10680 10679
10312 10314 10315 10316 10318 10320 10323 10327 10331 10334 10338 10342 10349 10355 10361 10368 10376 10384 10392 10399 10406 10417 10435 10451 10462 10478 10498 10510 10514 10518 10524 10531 10539 10548 10558 10568 10577 10586 10593 10599 10607 10613 10616 10620 10622 10622 10626 10631 10636 10641 10645 10649 10652 10655 10658 10659 10661 10664 10665 10666 10666 10667 10667 10669 10670 10672 10673 10675 10676 10677 10678 10678 10678 10679 10680 10680 10679 10678 10678 10678 10678 10678 10677 10677 10676 10674
10312 10313 10314 10315 10317 10319 10322 10326 10330 10332 10335 10339 10344 10350 10358 10366 10374 10381 10389 10396 10404 10415 10430 10443 10455 10471 10488 10498 10502 10505 10511 10520 10530 10540 10550 10559 10569 10579 10587 10594 10602 10607 10611 10614 10615 10616 10621 10627 10632 10637 10642 10646 10649 10652 10653 10655 10658 10659 10660 10661 10662 10663 10664 10665 10667 10668 10670 10671 10671 10672 10673 10673 10673 10674 10675 10675 10674 10674 10673 10673 10673 10673 10673 10672 10671 10669
10312 10313 10314 10315 10316 10318 10321 10325 10329 10332 10335 10339 10343 10348 10355 10363 10369 10376 10384 10391 10399 10409 10423 10436 10450 10465 10478 10487 10491 10495 10505 10519 10530 10539 10547 10555 10565 10574 10583 10591 10597 10601 10605 10608 10609 10612 10618 10624 10628 10633 10637 10641 10645 10647 10649 10652 10654 10655 10656 10657 10658 10660 10661 10662 10663 10664 10665 10666 10667 10667 10668 10668 10668 10669 10670 10670 10669 10669 10668 10668 10668 10668 10668 10667 10666 10664
10312 10313 10314 10315 10316 10318 10320 10323 10326 10330 10335 10339 10344 10349 10355 10360 10366 10372 10380 10388 10395 10405 10419 10434 10445 10455 10465 10475 10482 10489 10502 10515 10525 10533 10543 10552 10562 10570 10579 10588 10593 10597 10601 10603 10605 10609 10616 10620 10622 10627 10632 10637 10640 10643 10646 10648 10650 10651 10652 10653 10655 10656 10657 10658 10659 10660 10661 10662 10662 10663 10663 10663 10664 10664 10665 10665 10664 10664 10663 10663 10663 10663 10663 10662 10661 10659
10313 10313 10314 10315 10317 10318 10320 10322 10324 10328 10332 10338 10344 10349 10354 10359 10365 10372 10381 10389 10396 10406 10420 10430 10436 10443 10455 10468 10476 10486 10497 10507 10516 10525 10537 10549 10559 10567 10576 10585 10590 10594 10596 10598 10602 10607 10612 10614 10617 10622 10628 10632 10636 10639 10642 10644 10646 10647 10649 10650 10651 10652 10653 10654 10655 10656 10657 10658 10658 10658 10658 10658 10659 10660 10660 10660 10659 10659 10658 10658 10658 10658 10658 10657 10656 10655
10314 10314 10315 10316 10317 10318 10320 10323 10325 10328 10332 10336 10341 10347 10353 10359 10366 10374 10383 10390 10396 10406 10417 10423 10429 10441 10453 10463 10471 10480 10490 10500 10510 10521 10533 10545 10554 10563 10572 10580 10585 10588 10590 10594 10599 10604 10607 10609 10612 10618 10623 10628 10632 10635 10638 10641 10642 10644 10645 10646 10648 10649 10650 10650 10651 10652 10653 10654 10654 10654 10654 10654 10654 10655 10655 10654 10654 10654 10653 10653 10653 10653 10653 10652 10652 10651
10315 10315 10315 10317 10318 10319 10321 10323 10326 10329 10333 10336 10339 10345 10351 10359 10367 10374 10381 10387 10394 10404 10413 10420 10430 10441 10450 10458 10466 10476 10486 10496 10508 10521 10532 10542 10550 10559 10568 10574 10579 10583 10587 10591 10596 10600 10602 10605 10608 10613 10619 10624 10628 10632 10634 10637 10638 10640 10641 10643 10645 10646 10646 10647 10647 10648 10649 10649 10649 10649 10649 10649 10649 10650 10650 10650 10649 10649 10649 10649 10648 10648 10648 10648 10647 10646
10317 10317 10316 10318 10319 10320 10322 10324 10326 10329 10333 10337 10341 10346 10351 10358 10365 10371 10376 10384 10393 10401 10409 10418 10429 10438 10446 10455 10465 10476 10486 10496 10509 10522 10532 10539 10546 10555 10563 10569 10574 10578 10582 10587 10591 10594 10597 10599 10603 10609 10615 10621 10625 10628 10630 10632 10634 10636 10638 10639 10641 10641 10642 10643 10643 10643 10643 10644 10644 10644 10645 10645 10645 10645 10645 10645 10645 10645 10645 10645 10644 10644 10644 10644 10643 10642
10320 10319 10319 10319 10321 10323 10324 10326 10328 10331 10335 10339 10344 10349 10354 10358 10364 10369 10375 10384 10392 10399 10406 10415 10425 10435 10444 10453 10463 10473 10483 10493 10506 10519 10528 10534 10543 10551 10559 10564 10568 10573 10577 10580 10583 10587 10590 10593 10598 10605 10612 10617 10621 10624 10625 10627 10629 10632 10634 10635 10636 10637 10637 10638 10638 10638 10639 10639 10640 10641 10641 10641 10641 10641 10641 10640 10640 10641 10641 10641 10641 10640 10640 10640 10639 10638
10323 10322 10321 10322 10323 10325 10327 10329 10330 10333 10337 10342 10347 10352 10357 10361 10365 10371 10378 10385 10392 10398 10404 10412 10421 10430 10438 10448 10458 10470 10480 10489 10501 10513 10521 10528 10537 10546 10552 10557 10560 10565 10569 10572 10576 10581 10585 10588 10595 10602 10608 10613 10616 10618 10620 10621 10624 10627 10629 10630 10631 10632 10633 10634 10634 10634 10634 10635 10636 10637 10637 10637 10637 10637 10636 10636 10636 10636 10637 10637 10636 10636 10636 10635 10634 10633
10326 10325 10325 10325 10326 10328 10330 10331 10334 10337 10340 10345 10350 10355 10359 10363 10368 10373 10379 10386 10391 10397 10402 10409 10417 10423 10432 10443 10455 10466 10476 10485 10496 10507 10515 10523 10531 10539 10544 10548 10552 10557 10561 10566 10572 10577 10580 10585 10591 10598 10603 10608 10611 10612 10613 10616 10619 10622 10623 10625 10627 10628 10628 10628 10629 10629 10630 10631 10632 10633 10633 10633 10633 10632 10632 10632 10632 10632 10632 10632 10632 10631 10631 10630 10629 10628
10329 10328 10328 10328 10329 10330 10332 10335 10337 10341 10345 10349 10354 10358 10363 10366 10370 10375 10380 10386 10392 10398 10402 10408 10415 10423 10432 10442 10452 10461 10471 10481 10493 10504 10512 10518 10526 10534 10539 10543 10548 10553 10559 10564 10569 10573 10577 10581 10587 10594 10599 10602 10604 10606 10608 10611 10614 10616 10618 10621 10622 10623 10623 10624 10625 10625 10626 10627 10628 10629 10629 10629 10628 10628 10628 10628 10628 10627 10627 10627 10627 10627 10626 10626 10624 10623
10332 10332 10332 10331 10332 10333 10335 10338 10341 10345 10348 10351 10354 10358 10363 10367 10370 10375 10381 10388 10394 10398 10403 10409 10416 10425 10434 10443 10451 10460 10468 10479 10492 10502 10509 10516 10524 10532 10537 10541 10545 10551 10557 10562 10566 10570 10574 10579 10585 10590 10593 10595 10597 10600 10603 10606 10608 10611 10613 10616 10617 10618 10619 10620 10621 10621 10622 10622 10623 10624 10625 10625 10624 10624 10624 10624 10623 10623 10622 10622 10622 10622 10622 10621 10619 10618
10335 10335 10335 10335 10335 10336 10338 10341 10345 10347 10349 10351 10353 10356 10361 10365 10370 10376 10383 10390 10394 10398 10403 10409 10417 10425 10434 10442 10451 10459 10468 10478 10488 10497 10504 10512 10521 10528 10532 10537 10542 10547 10553 10558 10562 10566 10571 10575 10579 10583 10585 10588 10592 10595 10597 10600 10603 10606 10608 10611 10613 10614 10615 10616 10617 10617 10618 10618 10619 10620 10620 10620 10620 10620 10620 10619 10619 10618 10617 10617 10618 10617 10617 10615 10614 10612
10338 10338 10338 10338 10338 10339 10341 10343 10346 10348 10350 10352 10356 10358 10361 10366 10371 10378 10385 10390 10395 10400 10405 10411 10418 10424 10433 10441 10449 10457 10467 10477 10485 10492 10498 10506 10515 10521 10526 10531 10537 10542 10548 10553 10557 10561 10565 10569 10573 10576 10578 10582 10587 10589 10592 10595 10599 10601 10604 10606 10608 10609 10611 10612 10613 10613 10614 10615 10615 10615 10616 10616 10617 10616 10616 10615 10614 10613 10613 10613 10613 10612 10611 10610 10609 10607
10341 10342 10342 10341 10341 10342 10344 10346 10348 10350 10352 10355 10358 10361 10364 10368 10373 10380 10387 10392 10396 10401 10407 10412 10418 10424 10432 10440 10448 10456 10464 10474 10482 10488 10494 10501 10508 10514 10520 10526 10531 10537 10542 10548 10552 10557 10561 10564 10567 10570 10573 10577 10581 10584 10587 10591 10594 10597 10600 10602 10603 10605 10606 10608 10608 10609 10610 10611 10611 10611 10612 10612 10612 10612 10610 10609 10609 10608 10609 10609 10608 10606 10605 10604 10604 10603
10344 10345 10345 10345 10345 10346 10347 10348 10350 10352 10355 10358 10360 10363 10366 10370 10375 10382 10389 10393 10396 10402 10409 10414 10418 10424 10431 10439 10447 10454 10462 10469 10477 10484 10490 10496 10502 10508 10514 10520 10526 10531 10537 10543 10548 10552 10556 10558 10561 10564 10569 10573 10575 10578 10581 10585 10589 10592 10595 10597 10598 10600 10602 10603 10604 10604 10605 10606 10607 10608 10608 10607 10607 10606 10605 10604 10603 10604 10606 10605 10601 10600 10600 10601 10601 10601
10347 10347 10348 10347 10348 10348 10349 10351 10353 10355 10358 10360 10363 10365 10367 10371 10377 10383 10390 10393 10396 10402 10411 10416 10418 10423 10431 10439 10446 10453 10459 10466 10472 10479 10487 10494 10499 10504 10510 10516 10522 10528 10534 10539 10542 10546 10549 10552 10554 10559 10564 10566 10567 10571 10576 10580 10585 10588 10591 10592 10594 10596 10598 10599 10599 10600 10601 10602 10603 10603 10602 10602 10602 10601 10600 10599 10597 10599 10602 10600 10595 10595 10599 10600 10599 10597
10350 10350 10350 10350 10350 10351 10353 10354 10356 10358 10360 10362 10365 10367 10369 10372 10378 10384 10390 10393 10396 10403 10412 10418 10420 10423 10428 10434 10442 10449 10455 10462 10469 10476 10484 10491 10495 10501 10507 10512 10518 10523 10528 10531 10534 10538 10542 10545 10548 10553 10556 10558 10561 10567 10572 10577 10581 10583 10585 10588 10591 10593 10594 10594 10595 10596 10597 10597 10597 10597 10597 10597 10597 10596 10596 10594 10591 10592 10596 10596 10593 10595 10599 10598 10595 10593
10352 10352 10352 10352 10353 10354 10356 10357 10358 10360 10362 10363 10365 10368 10370 10374 10379 10385 10390 10393 10396 10402 10410 10416 10422 10425 10427 10431 10437 10444 10451 10458 10466 10473 10480 10486 10491 10496 10502 10507 10512 10515 10518 10522 10526 10530 10533 10537 10542 10546 10549 10553 10558 10563 10568 10572 10575 10577 10580 10585 10588 10589 10588 10589 10589 10590 10591 10592 10592 10591 10592 10592 10593 10592 10591 10590 10587 10586 10587 10588 10589 10592 10594 10592 10589 10588
10354 10354 10354 10354 10355 10356 10358 10359 10361 10363 10363 10364 10365 10368 10372 10376 10380 10385 10389 10392 10395 10400 10407 10416 10423 10427 10427 10429 10434 10440 10447 10455 10463 10470 10476 10481 10486 10491 10496 10502 10506 10509 10513 10518 10522 10525 10530 10534 10538 10541 10544 10549 10553 10558 10562 10566 10569 10572 10577 10581 10582 10581 10582 10583 10584 10585 10586 10586 10586 10585 10586 10587 10587 10587 10588 10587 10584 10580 10578 10579 10582 10585 10586 10585 10584 10583
10356 10355 10355 10355 10356 10358 10360 10362 10364 10365 10366 10367 10368 10369 10372 10377 10382 10385 10389 10392 10395 10399 10405 10414 10421 10423 10424 10427 10432 10436 10442 10449 10456 10463 10469 10474 10479 10484 10489 10495 10499 10504 10509 10514 10517 10521 10526 10530 10533 10536 10540 10545 10549 10553 10556 10559 10563 10568 10573 10574 10575 10576 10578 10579 10580 10581 10581 10581 10581 10580 10580 10581 10581 10581 10583 10584 10582 10578 10574 10574 10577 10579 10581 10581 10580 10579
10357 10356 10356 10356 10357 10359 10362 10364 10366 10367 10368 10369 10371 10372 10374 10378 10383 10385 10387 10391 10395 10400 10404 10409 10414 10418 10421 10426 10430 10434 10440 10445 10451 10457 10462 10466 10471 10477 10483 10488 10493 10498 10503 10507 10511 10516 10520 10524 10527 10531 10536 10540 10543 10547 10550 10554 10559 10564 10566 10566 10569 10572 10577 10580 10581 10580 10577 10576 10575 10574 10574 10574 10575 10576 10578 10580 10581 10579 10572 10569 10572 10575 10576 10577 10575 10573
10357 10357 10357 10358 10358 10360 10363 10366 10367 10368 10370 10372 10373 10375 10378 10381 10384 10387 10388 10390 10394 10399 10404 10407 10411 10416 10421 10425 10429 10434 10439 10444 10449 10454 10459 10463 10467 10470 10475 10480 10485 10490 10495 10500 10505 10509 10513 10517 10520 10524 10527 10531 10535 10539 10543 10549 10554 10558 10559 10560 10561 10563 10569 10577 10581 10579 10575 10572 10570 10569 10568 10568 10569 10572 10573 10574 10579 10578 10569 10564 10568 10571 10571 10571 10570 10568
10359 10358 10358 10359 10359 10361 10364 10366 10368 10369 10371 10373 10375 10377 10380 10383 10385 10388 10391 10392 10394 10398 10403 10406 10410 10415 10420 10425 10429 10433 10437 10442 10447 10453 10457 10461 10464 10468 10471 10475 10479 10483 10487 10492 10497 10502 10506 10509 10513 10516 10520 10525 10529 10533 10538 10544 10549 10552 10553 10555 10555 10554 10557 10566 10572 10572 10569 10567 10564 10564 10564 10563 10564 10566 10567 10569 10572 10573 10566 10562 10564 10566 10565 10565 10564 10563
10360 10359 10359 10360 10360 10361 10364 10366 10368 10370 10372 10374 10376 10378 10381 10384 10386 10389 10391 10393 10395 10398 10403 10407 10410 10415 10420 10425 10428 10431 10435 10438 10443 10449 10454 10458 10462 10465 10469 10473 10476 10480 10483 10488 10492 10497 10500 10503 10507 10511 10516 10521 10525 10529 10534 10540 10544 10545 10547 10549 10550 10548 10547 10551 10556 10560 10560 10558 10557 10558 10559 10559 10559 10560 10561 10562 10564 10564 10561 10559 10558 10559 10558 10558 10557 10556
10361 10361 10361 10361 10361 10362 10365 10367 10369 10372 10373 10375 10377 10379 10381 10383 10386 10388 10391 10393 10395 10399 10404 10408 10412 10415 10419 10424 10427 10429 10433 10436 10439 10444 10449 10453 10457 10461 10465 10469 10472 10475 10479 10483 10487 10490 10493 10497 10501 10507 10512 10516 10520 10524 10530 10535 10537 10539 10541 10542 10543 10543 10542 10543 10547 10552 10551 10550 10552 10555 10556 10555 10555 10554 10555 10555 10555 10554 10554 10553 10552 10551 10551 10551 10550 10550
10363 10363 10363 10363 10363 10365 10366 10368 10370 10372 10374 10376 10378 10380 10382 10384 10386 10389 10391 10394 10396 10399 10403 10408 10411 10414 10418 10423 10426 10428 10431 10435 10438 10441 10445 10449 10452 10456 10460 10463 10466 10469 10473 10477 10480 10483 10487 10491 10497 10502 10506 10510 10514 10520 10525 10529 10530 10532 10535 10536 10537 10539 10540 10541 10545 10547 10545 10545 10549 10553 10551 10549 10548 10548 10548 10548 10547 10547 10546 10546 10545 10544 10544 10544 10543 10543
10364 10364 10364 10364 10365 10366 10367 10368 10370 10373 10374 10377 10379 10382 10384 10385 10387 10389 10391 10394 10396 10399 10402 10405 10409 10412 10417 10421 10423 10425 10428 10431 10434 10438 10442 10444 10447 10451 10454 10456 10459 10463 10467 10470 10473 10477 10482 10487 10492 10497 10501 10505 10510 10515 10519 10522 10523 10525 10527 10528 10530 10534 10537 10538 10540 10540 10538 10539 10545 10547 10545 10542 10541 10541 10541 10540 10539 10539 10539 10538 10537 10536 10535 10536 10537 10536